Year,Month,Day,Hour,Minute,Value (Times are PST for temperature in C)
2011,04,21,08,01,5.10
2011,04,21,08,02,5.20
2011,04,21,08,03,5.20
2011,04,21,08,04,5.30
2011,04,21,08,05,5.30
2011,04,21,08,06,5.40
2011,04,21,08,07,5.40
2011,04,21,08,08,5.50
2011,04,21,08,09,5.50
2011,04,21,08,10,5.60
2011,04,21,08,11,5.60
2011,04,21,08,12,5.70
2011,04,21,08,13,5.70
2011,04,21,08,14,5.80
2011,04,21,08,15,5.80
2011,04,21,08,16,5.80
2011,04,21,08,17,5.90
2011,04,21,08,18,5.90
2011,04,21,08,19,5.90
2011,04,21,08,20,6.00
2011,04,21,08,21,6.00
2011,04,21,08,22,6.00
2011,04,21,08,23,6.10
2011,04,21,08,24,6.10
2011,04,21,08,25,6.10
2011,04,21,08,26,6.10
2011,04,21,08,27,6.10
2011,04,21,08,28,6.20
2011,04,21,08,29,6.20
2011,04,21,08,30,6.20
2011,04,21,08,31,6.20
2011,04,21,08,32,6.20
2011,04,21,08,33,6.30
2011,04,21,08,34,6.30
2011,04,21,08,35,6.30
2011,04,21,08,36,6.40
2011,04,21,08,37,6.40
2011,04,21,08,38,6.40
2011,04,21,08,39,6.40
2011,04,21,08,40,6.40
2011,04,21,08,41,6.40
2011,04,21,08,42,6.50
2011,04,21,08,43,6.50
2011,04,21,08,44,6.60
2011,04,21,08,45,6.60
2011,04,21,08,46,6.60
2011,04,21,08,47,6.60
2011,04,21,08,48,6.70
2011,04,21,08,49,6.70
2011,04,21,08,50,6.70
2011,04,21,08,51,6.70
2011,04,21,08,52,6.70
2011,04,21,08,53,6.70
2011,04,21,08,54,6.70
2011,04,21,08,55,6.70
2011,04,21,08,56,6.70
2011,04,21,08,57,6.70
2011,04,21,08,58,6.70
2011,04,21,08,59,6.70
2011,04,21,09,00,6.70
2011,04,21,09,01,6.80
2011,04,21,09,02,6.80
2011,04,21,09,03,6.80
2011,04,21,09,04,6.80
2011,04,21,09,05,6.80
2011,04,21,09,06,6.90
2011,04,21,09,07,6.80
2011,04,21,09,08,6.80
2011,04,21,09,09,6.80
2011,04,21,09,10,6.80
2011,04,21,09,11,6.80
2011,04,21,09,12,6.80
2011,04,21,09,13,6.90
2011,04,21,09,14,6.90
2011,04,21,09,15,6.90
2011,04,21,09,16,6.90
2011,04,21,09,17,6.80
2011,04,21,09,18,6.80
2011,04,21,09,19,6.90
2011,04,21,09,20,6.90
2011,04,21,09,21,6.90
2011,04,21,09,22,6.90
2011,04,21,09,23,7.00
2011,04,21,09,24,7.10
2011,04,21,09,25,7.10
2011,04,21,09,26,7.10
2011,04,21,09,27,7.20
2011,04,21,09,28,7.20
2011,04,21,09,29,7.20
2011,04,21,09,30,7.20
2011,04,21,09,31,7.20
2011,04,21,09,32,7.20
2011,04,21,09,33,7.20
2011,04,21,09,34,7.20
2011,04,21,09,35,7.30
2011,04,21,09,36,7.30
2011,04,21,09,37,7.30
2011,04,21,09,38,7.30
2011,04,21,09,39,7.30
2011,04,21,09,40,7.30
2011,04,21,09,41,7.30
2011,04,21,09,42,7.30
2011,04,21,09,43,7.30
2011,04,21,09,44,7.30
2011,04,21,09,45,7.30
2011,04,21,09,46,7.40
2011,04,21,09,47,7.40
2011,04,21,09,48,7.40
2011,04,21,09,49,7.50
2011,04,21,09,50,7.50
2011,04,21,09,51,7.60
2011,04,21,09,52,7.60
2011,04,21,09,53,7.60
2011,04,21,09,54,7.60
2011,04,21,09,55,7.60
2011,04,21,09,56,7.60
2011,04,21,09,57,7.60
2011,04,21,09,58,7.60
2011,04,21,09,59,7.60
2011,04,21,10,00,7.60
2011,04,21,10,01,7.60
2011,04,21,10,02,7.50
2011,04,21,10,03,7.50
2011,04,21,10,04,7.50
2011,04,21,10,05,7.50
2011,04,21,10,06,7.50
2011,04,21,10,07,7.60
2011,04,21,10,08,7.70
2011,04,21,10,09,7.70
2011,04,21,10,10,7.80
2011,04,21,10,11,7.80
2011,04,21,10,12,7.90
2011,04,21,10,13,7.90
2011,04,21,10,14,7.90
2011,04,21,10,15,7.90
2011,04,21,10,16,7.90
2011,04,21,10,17,7.80
2011,04,21,10,18,7.80
2011,04,21,10,19,7.80
2011,04,21,10,20,7.80
2011,04,21,10,21,7.80
2011,04,21,10,22,7.80
2011,04,21,10,23,7.70
2011,04,21,10,24,7.80
2011,04,21,10,25,7.80
2011,04,21,10,26,7.80
2011,04,21,10,27,7.80
2011,04,21,10,28,7.80
2011,04,21,10,29,7.80
2011,04,21,10,30,7.80
2011,04,21,10,31,7.80
2011,04,21,10,32,7.90
2011,04,21,10,33,7.90
2011,04,21,10,34,7.90
2011,04,21,10,35,7.90
2011,04,21,10,36,7.90
2011,04,21,10,37,7.90
2011,04,21,10,38,7.80
2011,04,21,10,39,7.80
2011,04,21,10,40,7.80
2011,04,21,10,41,7.80
2011,04,21,10,42,7.80
2011,04,21,10,43,7.80
2011,04,21,10,44,7.80
2011,04,21,10,45,7.90
2011,04,21,10,46,7.90
2011,04,21,10,47,8.00
2011,04,21,10,48,8.10
2011,04,21,10,49,8.20
2011,04,21,10,50,8.20
2011,04,21,10,51,8.30
2011,04,21,10,52,8.30
2011,04,21,10,53,8.30
2011,04,21,10,54,8.30
2011,04,21,10,55,8.30
2011,04,21,10,56,8.30
2011,04,21,10,57,8.40
2011,04,21,10,58,8.40
2011,04,21,10,59,8.40
2011,04,21,11,00,8.40
2011,04,21,11,01,8.40
2011,04,21,11,02,8.40
2011,04,21,11,03,8.50
2011,04,21,11,04,8.50
2011,04,21,11,05,8.60
2011,04,21,11,06,8.60
2011,04,21,11,07,8.60
2011,04,21,11,08,8.50
2011,04,21,11,09,8.50
2011,04,21,11,10,8.50
2011,04,21,11,11,8.50
2011,04,21,11,12,8.50
2011,04,21,11,13,8.50
2011,04,21,11,14,8.50
2011,04,21,11,15,8.50
2011,04,21,11,16,8.40
2011,04,21,11,17,8.30
2011,04,21,11,18,8.30
2011,04,21,11,19,8.30
2011,04,21,11,20,8.30
2011,04,21,11,21,8.40
2011,04,21,11,22,8.40
2011,04,21,11,23,8.40
2011,04,21,11,24,8.40
2011,04,21,11,25,8.40
2011,04,21,11,26,8.40
2011,04,21,11,27,8.30
2011,04,21,11,28,8.30
2011,04,21,11,29,8.30
2011,04,21,11,30,8.30
2011,04,21,11,31,8.30
2011,04,21,11,32,8.40
2011,04,21,11,33,8.40
2011,04,21,11,34,8.50
2011,04,21,11,35,8.60
2011,04,21,11,36,8.70
2011,04,21,11,37,8.70
2011,04,21,11,38,8.60
2011,04,21,11,39,8.60
2011,04,21,11,40,8.50
2011,04,21,11,41,8.50
2011,04,21,11,42,8.40
2011,04,21,11,43,8.40
2011,04,21,11,44,8.30
2011,04,21,11,45,8.30
2011,04,21,11,46,8.30
2011,04,21,11,47,8.20
2011,04,21,11,48,8.20
2011,04,21,11,49,8.20
2011,04,21,11,50,8.20
2011,04,21,11,51,8.20
2011,04,21,11,52,8.20
2011,04,21,11,53,8.30
2011,04,21,11,54,8.30
2011,04,21,11,55,8.40
2011,04,21,11,56,8.50
2011,04,21,11,57,8.60
2011,04,21,11,58,8.70
2011,04,21,11,59,8.80
2011,04,21,12,00,8.80
2011,04,21,12,01,8.80
2011,04,21,12,02,8.70
2011,04,21,12,03,8.70
2011,04,21,12,04,8.70
2011,04,21,12,05,8.80
2011,04,21,12,06,8.80
2011,04,21,12,07,8.90
2011,04,21,12,08,8.90
2011,04,21,12,09,8.90
2011,04,21,12,10,8.90
2011,04,21,12,11,8.90
2011,04,21,12,12,8.90
2011,04,21,12,13,9.00
2011,04,21,12,14,9.00
2011,04,21,12,15,9.00
2011,04,21,12,16,8.90
2011,04,21,12,17,8.90
2011,04,21,12,18,8.90
2011,04,21,12,19,8.90
2011,04,21,12,20,8.80
2011,04,21,12,21,8.80
2011,04,21,12,22,8.80
2011,04,21,12,23,8.80
2011,04,21,12,24,8.80
2011,04,21,12,25,8.80
2011,04,21,12,26,8.80
2011,04,21,12,27,8.80
2011,04,21,12,28,8.80
2011,04,21,12,29,8.90
2011,04,21,12,30,8.90
2011,04,21,12,31,8.90
2011,04,21,12,32,9.00
2011,04,21,12,33,9.00
2011,04,21,12,34,9.00
2011,04,21,12,35,9.00
2011,04,21,12,36,9.00
2011,04,21,12,37,9.00
2011,04,21,12,38,9.00
2011,04,21,12,39,9.00
2011,04,21,12,40,9.00
2011,04,21,12,41,9.00
2011,04,21,12,42,9.00
2011,04,21,12,43,9.00
2011,04,21,12,44,9.00
2011,04,21,12,45,9.00
2011,04,21,12,46,9.00
2011,04,21,12,47,9.00
2011,04,21,12,48,9.10
2011,04,21,12,49,9.10
2011,04,21,12,50,9.10
2011,04,21,12,51,9.20
2011,04,21,12,52,9.20
2011,04,21,12,53,9.20
2011,04,21,12,54,9.20
2011,04,21,12,55,9.20
2011,04,21,12,56,9.20
2011,04,21,12,57,9.20
2011,04,21,12,58,9.20
2011,04,21,12,59,9.20
2011,04,21,13,00,9.30
2011,04,21,13,01,9.20
2011,04,21,13,02,9.20
2011,04,21,13,03,9.20
2011,04,21,13,04,9.10
2011,04,21,13,05,9.10
2011,04,21,13,06,9.10
2011,04,21,13,07,9.10
2011,04,21,13,08,9.00
2011,04,21,13,09,9.00
2011,04,21,13,10,9.00
2011,04,21,13,11,9.00
2011,04,21,13,12,9.00
2011,04,21,13,13,9.00
2011,04,21,13,14,9.10
2011,04,21,13,15,9.10
2011,04,21,13,16,9.10
2011,04,21,13,17,9.10
2011,04,21,13,18,9.20
2011,04,21,13,19,9.20
2011,04,21,13,20,9.20
2011,04,21,13,21,9.30
2011,04,21,13,22,9.40
2011,04,21,13,23,9.40
2011,04,21,13,24,9.40
2011,04,21,13,25,9.40
2011,04,21,13,26,9.40
2011,04,21,13,27,9.40
2011,04,21,13,28,9.40
2011,04,21,13,29,9.40
2011,04,21,13,30,9.40
2011,04,21,13,31,9.40
2011,04,21,13,32,9.50
2011,04,21,13,33,9.50
2011,04,21,13,34,9.60
2011,04,21,13,35,9.60
2011,04,21,13,36,9.60
2011,04,21,13,37,9.60
2011,04,21,13,38,9.60
2011,04,21,13,39,9.70
2011,04,21,13,40,9.70
2011,04,21,13,41,9.60
2011,04,21,13,42,9.60
2011,04,21,13,43,9.60
2011,04,21,13,44,9.60
2011,04,21,13,45,9.60
2011,04,21,13,46,9.60
2011,04,21,13,47,9.60
2011,04,21,13,48,9.50
2011,04,21,13,49,9.50
2011,04,21,13,50,9.60
2011,04,21,13,51,9.50
2011,04,21,13,52,9.50
2011,04,21,13,53,9.50
2011,04,21,13,54,9.60
2011,04,21,13,55,9.60
2011,04,21,13,56,9.50
2011,04,21,13,57,9.50
2011,04,21,13,58,9.50
2011,04,21,13,59,9.50
2011,04,21,14,00,9.40
2011,04,21,14,01,9.40
2011,04,21,14,02,9.40
2011,04,21,14,03,9.50
2011,04,21,14,04,9.50
2011,04,21,14,05,9.60
2011,04,21,14,06,9.60
2011,04,21,14,07,9.60
2011,04,21,14,08,9.60
2011,04,21,14,09,9.60
2011,04,21,14,10,9.60
2011,04,21,14,11,9.60
2011,04,21,14,12,9.60
2011,04,21,14,13,9.70
2011,04,21,14,14,9.70
2011,04,21,14,15,9.80
2011,04,21,14,16,9.80
2011,04,21,14,17,9.70
2011,04,21,14,18,9.70
2011,04,21,14,19,9.80
2011,04,21,14,20,9.80
2011,04,21,14,21,9.80
2011,04,21,14,22,9.90
2011,04,21,14,23,9.90
2011,04,21,14,24,9.90
2011,04,21,14,25,10.00
2011,04,21,14,26,10.00
2011,04,21,14,27,9.90
2011,04,21,14,28,9.90
2011,04,21,14,29,9.90
2011,04,21,14,30,9.90
2011,04,21,14,31,9.80
2011,04,21,14,32,9.80
2011,04,21,14,33,9.80
2011,04,21,14,34,9.80
2011,04,21,14,35,9.80
2011,04,21,14,36,9.80
2011,04,21,14,37,9.80
2011,04,21,14,38,9.80
2011,04,21,14,39,9.80
2011,04,21,14,40,9.90
2011,04,21,14,41,9.90
2011,04,21,14,42,9.90
2011,04,21,14,43,9.90
2011,04,21,14,44,9.90
2011,04,21,14,45,9.90
2011,04,21,14,46,9.90
2011,04,21,14,47,9.80
2011,04,21,14,48,9.80
2011,04,21,14,49,9.80
2011,04,21,14,50,9.70
2011,04,21,14,51,9.80
2011,04,21,14,52,9.80
2011,04,21,14,53,9.80
2011,04,21,14,54,9.90
2011,04,21,14,55,9.90
2011,04,21,14,56,9.90
2011,04,21,14,57,10.00
2011,04,21,14,58,10.00
2011,04,21,14,59,10.10
2011,04,21,15,00,10.10
2011,04,21,15,01,10.10
2011,04,21,15,02,10.10
2011,04,21,15,03,10.10
2011,04,21,15,04,10.00
2011,04,21,15,05,10.00
2011,04,21,15,06,10.00
2011,04,21,15,07,10.00
2011,04,21,15,08,10.00
2011,04,21,15,09,10.00
2011,04,21,15,10,9.90
2011,04,21,15,11,9.90
2011,04,21,15,12,9.90
2011,04,21,15,13,9.90
2011,04,21,15,14,9.90
2011,04,21,15,15,10.00
2011,04,21,15,16,10.00
2011,04,21,15,17,10.10
2011,04,21,15,18,10.10
2011,04,21,15,19,10.10
2011,04,21,15,20,10.00
2011,04,21,15,21,10.10
2011,04,21,15,22,10.10
2011,04,21,15,23,10.10
2011,04,21,15,24,10.10
2011,04,21,15,25,10.10
2011,04,21,15,26,10.00
2011,04,21,15,27,10.00
2011,04,21,15,28,10.00
2011,04,21,15,29,9.90
2011,04,21,15,30,9.90
2011,04,21,15,31,10.00
2011,04,21,15,32,10.00
2011,04,21,15,33,10.10
2011,04,21,15,34,10.10
2011,04,21,15,35,10.10
2011,04,21,15,36,10.10
2011,04,21,15,37,10.20
2011,04,21,15,38,10.20
2011,04,21,15,39,10.30
2011,04,21,15,40,10.40
2011,04,21,15,41,10.40
2011,04,21,15,42,10.40
2011,04,21,15,43,10.40
2011,04,21,15,44,10.40
2011,04,21,15,45,10.40
2011,04,21,15,46,10.40
2011,04,21,15,47,10.40
2011,04,21,15,48,10.50
2011,04,21,15,49,10.60
2011,04,21,15,50,10.60
2011,04,21,15,51,10.70
2011,04,21,15,52,10.70
2011,04,21,15,53,10.70
2011,04,21,15,54,10.70
2011,04,21,15,55,10.70
2011,04,21,15,56,10.70
2011,04,21,15,57,10.70
2011,04,21,15,58,10.80
2011,04,21,15,59,10.80
2011,04,21,16,00,10.80
2011,04,21,16,01,10.80
2011,04,21,16,02,10.80
2011,04,21,16,03,10.80
2011,04,21,16,04,10.80
2011,04,21,16,05,10.80
2011,04,21,16,06,10.70
2011,04,21,16,07,10.70
2011,04,21,16,08,10.70
2011,04,21,16,09,10.60
2011,04,21,16,10,10.60
2011,04,21,16,11,10.50
2011,04,21,16,12,10.50
2011,04,21,16,13,10.50
2011,04,21,16,14,10.50
2011,04,21,16,15,10.40
2011,04,21,16,16,10.40
2011,04,21,16,17,10.40
2011,04,21,16,18,10.40
2011,04,21,16,19,10.30
2011,04,21,16,20,10.30
2011,04,21,16,21,10.30
2011,04,21,16,22,10.30
2011,04,21,16,23,10.30
2011,04,21,16,24,10.30
2011,04,21,16,25,10.30
2011,04,21,16,26,10.40
2011,04,21,16,27,10.50
2011,04,21,16,28,10.50
2011,04,21,16,29,10.60
2011,04,21,16,30,10.70
2011,04,21,16,31,10.70
2011,04,21,16,32,10.70
2011,04,21,16,33,10.70
2011,04,21,16,34,10.60
2011,04,21,16,35,10.60
2011,04,21,16,36,10.50
2011,04,21,16,37,10.50
2011,04,21,16,38,10.40
2011,04,21,16,39,10.50
2011,04,21,16,40,10.50
2011,04,21,16,41,10.50
2011,04,21,16,42,10.60
2011,04,21,16,43,10.60
2011,04,21,16,44,10.70
2011,04,21,16,45,10.70
2011,04,21,16,46,10.70
2011,04,21,16,47,10.70
2011,04,21,16,48,10.70
2011,04,21,16,49,10.70
2011,04,21,16,50,10.70
2011,04,21,16,51,10.70
2011,04,21,16,52,10.70
2011,04,21,16,53,10.70
2011,04,21,16,54,10.70
2011,04,21,16,55,10.70
2011,04,21,16,56,10.70
2011,04,21,16,57,10.70
2011,04,21,16,58,10.70
2011,04,21,16,59,10.70
2011,04,21,17,00,10.80
2011,04,21,17,01,10.80
2011,04,21,17,02,10.90
2011,04,21,17,03,10.90
2011,04,21,17,04,10.90
2011,04,21,17,05,10.90
2011,04,21,17,06,10.90
2011,04,21,17,07,10.90
2011,04,21,17,08,10.90
2011,04,21,17,09,10.90
2011,04,21,17,10,10.90
2011,04,21,17,11,10.90
2011,04,21,17,12,10.90
2011,04,21,17,13,10.90
2011,04,21,17,14,10.90
2011,04,21,17,15,10.80
2011,04,21,17,16,10.80
2011,04,21,17,17,10.80
2011,04,21,17,18,10.80
2011,04,21,17,19,10.80
2011,04,21,17,20,10.80
2011,04,21,17,21,10.80
2011,04,21,17,22,10.80
2011,04,21,17,23,10.70
2011,04,21,17,24,10.70
2011,04,21,17,25,10.70
2011,04,21,17,26,10.70
2011,04,21,17,27,10.70
2011,04,21,17,28,10.70
2011,04,21,17,29,10.60
2011,04,21,17,30,10.60
2011,04,21,17,31,10.70
2011,04,21,17,32,10.70
2011,04,21,17,33,10.70
2011,04,21,17,34,10.70
2011,04,21,17,35,10.80
2011,04,21,17,36,10.80
2011,04,21,17,37,10.80
2011,04,21,17,38,10.80
2011,04,21,17,39,10.80
2011,04,21,17,40,10.80
2011,04,21,17,41,10.70
2011,04,21,17,42,10.70
2011,04,21,17,43,10.70
2011,04,21,17,44,10.80
2011,04,21,17,45,10.80
2011,04,21,17,46,10.80
2011,04,21,17,47,10.80
2011,04,21,17,48,10.90
2011,04,21,17,49,10.90
2011,04,21,17,50,10.90
2011,04,21,17,51,10.90
2011,04,21,17,52,10.90
2011,04,21,17,53,11.00
2011,04,21,17,54,11.00
2011,04,21,17,55,11.10
2011,04,21,17,56,11.20
2011,04,21,17,57,11.20
2011,04,21,17,58,11.30
2011,04,21,17,59,11.30
2011,04,21,18,00,11.30
2011,04,21,18,01,11.30
2011,04,21,18,02,11.30
2011,04,21,18,03,11.30
2011,04,21,18,04,11.30
2011,04,21,18,05,11.30
2011,04,21,18,06,11.20
2011,04,21,18,07,11.20
2011,04,21,18,08,11.20
2011,04,21,18,09,11.20
2011,04,21,18,10,11.20
2011,04,21,18,11,11.20
2011,04,21,18,12,11.20
2011,04,21,18,13,11.20
2011,04,21,18,14,11.20
2011,04,21,18,15,11.20
2011,04,21,18,16,11.20
2011,04,21,18,17,11.20
2011,04,21,18,18,11.20
2011,04,21,18,19,11.20
2011,04,21,18,20,11.20
2011,04,21,18,21,11.20
2011,04,21,18,22,11.20
2011,04,21,18,23,11.20
2011,04,21,18,24,11.20
2011,04,21,18,25,11.20
2011,04,21,18,26,11.20
2011,04,21,18,27,11.20
2011,04,21,18,28,11.20
2011,04,21,18,29,11.20
2011,04,21,18,30,11.20
2011,04,21,18,31,11.20
2011,04,21,18,32,11.10
2011,04,21,18,33,11.10
2011,04,21,18,34,11.10
2011,04,21,18,35,11.10
2011,04,21,18,36,11.10
2011,04,21,18,37,11.10
2011,04,21,18,38,11.10
2011,04,21,18,39,11.10
2011,04,21,18,40,11.20
2011,04,21,18,41,11.20
2011,04,21,18,42,11.20
2011,04,21,18,43,11.20
2011,04,21,18,44,11.30
2011,04,21,18,45,11.30
2011,04,21,18,46,11.20
2011,04,21,18,47,11.20
2011,04,21,18,48,11.20
2011,04,21,18,49,11.20
2011,04,21,18,50,11.20
2011,04,21,18,51,11.20
2011,04,21,18,52,11.20
2011,04,21,18,53,11.20
2011,04,21,18,54,11.20
2011,04,21,18,55,11.20
2011,04,21,18,56,11.30
2011,04,21,18,57,11.30
2011,04,21,18,58,11.30
2011,04,21,18,59,11.30
2011,04,21,19,00,11.30
2011,04,21,19,01,11.30
2011,04,21,19,02,11.30
2011,04,21,19,03,11.30
2011,04,21,19,04,11.30
2011,04,21,19,05,11.30
2011,04,21,19,06,11.30
2011,04,21,19,07,11.30
2011,04,21,19,08,11.20
2011,04,21,19,09,11.20
2011,04,21,19,10,11.10
2011,04,21,19,11,11.10
2011,04,21,19,12,11.00
2011,04,21,19,13,11.00
2011,04,21,19,14,10.90
2011,04,21,19,15,10.90
2011,04,21,19,16,10.80
2011,04,21,19,17,10.80
2011,04,21,19,18,10.80
2011,04,21,19,19,10.80
2011,04,21,19,20,10.70
2011,04,21,19,21,10.70
2011,04,21,19,22,10.70
2011,04,21,19,23,10.70
2011,04,21,19,24,10.70
2011,04,21,19,25,10.70
2011,04,21,19,26,10.70
2011,04,21,19,27,10.70
2011,04,21,19,28,10.70
2011,04,21,19,29,10.70
2011,04,21,19,30,10.70
2011,04,21,19,31,10.70
2011,04,21,19,32,10.70
2011,04,21,19,33,10.70
2011,04,21,19,34,10.70
2011,04,21,19,35,10.70
